This is the latest recevied weather packets stored in our database for station/object K4ROM-1. If no packets are shown the sender has not sent any weather packets the latest 10 day(s).
| Time | Temp. | Humidity | Pressure | Rain* | Wind** | Luminosity | Snow |
|---|---|---|---|---|---|---|---|
| 1777756803 | 14.44° C | 52% | 1013.1 hPa | 0 mm | 0 m/s | - | - |
| 1777756204 | 13.89° C | 54% | 1012.8 hPa | 0 mm | 0.45 m/s, 340° | - | - |
| 1777755604 | 14.44° C | 52% | 1012.8 hPa | 0 mm | 0 m/s | - | - |
| 1777755003 | 13.89° C | 52% | 1013 hPa | 0 mm | 0 m/s | - | - |
| 1777754402 | 13.89° C | 51% | 1013.1 hPa | 0 mm | 0.45 m/s, 358° | - | - |
| 1777753803 | 13.89° C | 52% | 1013.4 hPa | 0 mm | 0.45 m/s, 339° | - | - |
| 1777753203 | 13.33° C | 53% | 1013.2 hPa | 0 mm | 0.45 m/s, 342° | - | - |
| 1777752603 | 13.33° C | 51% | 1013.1 hPa | 0 mm | 0.45 m/s, 27° | - | - |
| 1777752003 | 13.33° C | 50% | 1013.3 hPa | 0 mm | 1.79 m/s, 81° | - | - |
| 1777751403 | 13.33° C | 54% | 1013.6 hPa | 0 mm | 0.45 m/s, 11° | - | - |
| 1777750803 | 13.33° C | 51% | 1013.5 hPa | 0 mm | 0.45 m/s, 50° | - | - |
| 1777750203 | 13.33° C | 52% | 1013.9 hPa | 0 mm | 0.89 m/s, 23° | - | - |
| 1777749603 | 13.33° C | 50% | 1013.9 hPa | 0 mm | 0.45 m/s, 29° | - | - |
| 1777749003 | 13.89° C | 50% | 1013.9 hPa | 0 mm | 0.89 m/s, 75° | - | - |
| 1777748403 | 14.44° C | 49% | 1013.8 hPa | 0 mm | 2.68 m/s, 350° | - | - |
| 1777747803 | 13.89° C | 51% | 1013.5 hPa | 0 mm | 0.89 m/s, 341° | - | - |
| 1777747203 | 13.89° C | 53% | 1013.6 hPa | 0 mm | 1.34 m/s, 62° | - | - |
| 1777746602 | 13.89° C | 53% | 1013.9 hPa | 0 mm | 0.89 m/s, 27° | - | - |
| 1777746003 | 13.33° C | 54% | 1013.9 hPa | 0 mm | 0.89 m/s, 358° | - | - |
| 1777745403 | 13.33° C | 55% | 1014 hPa | 0 mm | 1.79 m/s, 34° | - | - |
| 1777744803 | 13.33° C | 60% | 1013.7 hPa | 0 mm | 0.89 m/s, 37° | - | - |
| 1777744203 | 13.89° C | 59% | 1013.8 hPa | 0 mm | 1.34 m/s, 342° | - | - |
| 1777743603 | 13.89° C | 56% | 1014 hPa | 0 mm | 1.79 m/s, 336° | - | - |
| 1777743003 | 13.33° C | 60% | 1014.3 hPa | 0 mm | 0.45 m/s, 22° | - | - |
| 1777742403 | 13.33° C | 61% | 1014.1 hPa | 0 mm | 1.79 m/s, 324° | - | - |
* Rain latest hour (hover to see other rain measurements)
** Current wind speed in m/s (hover to see current wind gust speed)